FREGAT DEB, 46413

Orbit data source: Space-Track

FREGAT DEB, 46413 is space debris in LEO originally from a launch on Mon, 18 Jul 2011 UTC launched from the Tyuratam Missile And Space Complex (TTMTR). Debris objects in space refer to the collection of defunct objects orbiting the Earth. Examples of debris include non-operational satellites, rocket bodies, and fragments generated from explosions, collisions, or faulty payload assembly.

Loading next visibility...
Identifier
46413, 2011-037LU
Orbit
LEO
Country
Flag of CISCIS
Related business
Manufacturer
Lavochkin
Mission
Spacecraft
Bus & Motor
Unknown
Mass
Unknown
Launch date (UTC)
2011-07-18 (14 years ago)
Launch vehicle
Unknown
Launch site
Tyuratam Missile And Space Complex (TTMTR)
Object type
Payload
Rocket body
Debris
Shape & HBR
Unknown shape, 0.1 m
Radar Cross Section
Medium (>0.1 m² and <1 m²)

Expand to show TLE details & history
Last TLE update: 1 day ago

TLE from 1 day ago
0 FREGAT DEB
1 46413U 11037LU  25296.44737841  .00010619  00000-0  55035-1 0  9998
2 46413  51.0200  83.8153 1169519  32.8891 333.9478 11.39463685 59321
Epoch: 2025-10-23T10:44Z
TLE epoch observation values (Epoch: 2025-10-23T10:44:13.494Z)
Latitude
-0.00004°
Longitude
-109.34746°
Altitude
1,113.848 km
Speed
7.659 km/s
True Right ascension
05h 35m 15s
True Declination
0° 00' 00"
Sunlit
Object was in full shadow at epoch
Visualization orbit readout
Latitude
Unknown
Longitude
Unknown
Altitude
Unknown
Speed
Unknown
Apparent Right ascension
Unknown
Apparent Declination
Unknown
Sunlit
N/A
Visualization observer readout
Local Sidereal Time
14:41:49
Azimuth
Unknown
Elevation
Unknown
Doppler factor
Unknown
Orbital elements
Apogee altitude
2,940.002 km
Perigee altitude
988.666 km
Semi-major axis
8,342.471 km
Eccentricity
0.11695
Inclination
51.02°
RAAN
83.8153°
Arg. of periapsis
32.8891°
True anomaly
327.19426°
Mean anomaly
333.9478°
Eccentric anomaly
330.66495°
Mean motion
2.8484 °/min
Orbital period
126.39 mins
BSTAR
0.055035
Loading maneuver chart data...
Computing Atmospheric mass density...
Loading historical data...
Loading historical data...
Loading historical data...
Loading historical data...
Loading historical data...
Loading historical data...
Loading historical data...

Documentation

Showing up to 5 results
|